• Join FlightAware (Why Join?)
  • Login
  • US Flag 
11:40PM EST


 

Airport Tracker/Info


-or-


 

Live Flight TrackerFlight Track Log ✈ N27XP ✈ 25-Jul-2013 ✈ KABE - KSOP

Flight Track Log - Related Links

Times and Time Zones

All times are in EDT time to prevent confusion due to time zone crossing. See the N27XP flight status page for this flight to view local times or setup timezone preferences in your user account.

Time Position Orientation Groundspeed Altitude Reporting Facility
EDT Latitude Longitude Course Direction KTS MPH feet Rate Location/Type
09:31PM 40.7008 -75.4300 229° Southwest 177 204 4,900  Level New York Center
09:32PM 40.6814 -75.4997 250° West 129 148 8,000 1,980 Climbing New York Center
09:33PM 40.6300 -75.5892 233° Southwest 202 232 9,000 900 Climbing New York Center
09:34PM 40.5825 -75.6814 236° Southwest 263 303 9,900 1,440 Climbing New York Center
09:35PM 40.5206 -75.7672 227° Southwest 316 364 11,900 1,980 Climbing New York Center
09:36PM 40.4589 -75.8444 224° Southwest 335 386 13,800 1,920 Climbing New York Center
09:37PM 40.0613 -76.2165 229° Southwest  Level FlightAware Approximate
09:37PM 40.3978 -75.9544 234° Southwest 343 395 15,900  Level New York Center
09:38PM 40.3450 -76.0650 238° Southwest 362 417 17,900 1,860 Climbing New York Center
09:39PM 40.2858 -76.1747 235° Southwest 362 417 19,700 1,560 Climbing New York Center
09:40PM 40.2433 -76.2775 242° Southwest 362 417 21,000 1,380 Climbing New York Center
09:41PM 40.1981 -76.3989 244° Southwest 362 417 22,500 1,440 Climbing New York Center
09:42PM 40.1539 -76.5367 247° West 373 429 24,000 1,500 Climbing New York Center
09:43PM 40.1061 -76.6631 244° Southwest 385 443 25,500 1,620 Climbing New York Center
09:44PM 40.0564 -76.7808 241° Southwest 385 443 27,300 1,560 Climbing New York Center
09:45PM 39.9844 -76.8831 227° Southwest 385 443 28,700 1,260 Climbing New York Center
09:47PM 39.7972 -76.9986 205° Southwest 373 429 31,100 1,080 Climbing Washington Center
09:48PM 39.7025 -77.0614 207° Southwest 379 436 32,000 420 Climbing Washington Center
09:49PM 39.6017 -77.1294 207° Southwest 391 450 32,000  Level Washington Center
09:50PM 39.4967 -77.1944 206° Southwest 405 466 32,000  Level Washington Center
09:51PM 39.3894 -77.2672 208° Southwest 425 489 32,000  Level Washington Center
09:52PM 39.2842 -77.3344 206° Southwest 425 489 32,000  Level Washington Center
09:53PM 39.1792 -77.4042 207° Southwest 425 489 32,000  Level Washington Center
09:54PM 39.0739 -77.4739 207° Southwest 430 495 32,000  Level Washington Center
09:55PM 38.9747 -77.5381 207° Southwest 430 495 32,000  Level Washington Center
09:56PM 38.8567 -77.6150 207° Southwest 430 495 32,000  Level Washington Center
09:57PM 38.7514 -77.6786 205° Southwest 444 511 32,000  Level Washington Center
09:58PM 38.6481 -77.7500 208° Southwest 444 511 32,000  Level Washington Center
09:59PM 38.5364 -77.8186 206° Southwest 444 511 32,000  Level Washington Center
10:00PM 38.4286 -77.8894 207° Southwest 439 505 32,000  Level Washington Center
10:01PM 38.3208 -77.9603 207° Southwest 439 505 32,000  Level Washington Center
10:02PM 38.2111 -78.0281 206° Southwest 439 505 32,000  Level Washington Center
10:03PM 38.1011 -78.0986 207° Southwest 439 505 32,000 -120 Level Washington Center
10:04PM 37.9828 -78.1708 206° Southwest 439 505 31,800 -540 Descending Washington Center
10:05PM 37.8897 -78.2361 209° Southwest 439 505 31,000 -1,080 Descending Washington Center
10:06PM 37.7689 -78.3161 208° Southwest 439 505 29,700 -1,140 Descending Washington Center
10:07PM 37.6569 -78.3881 207° Southwest 444 511 28,700 -1,080 Descending Washington Center
10:08PM 37.5367 -78.4361 198° South 444 511 27,600 -1,080 Descending Washington Center
10:09PM 37.4069 -78.4625 189° South 460 529 26,600 -900 Descending Washington Center
10:10PM 37.2894 -78.4869 189° South 465 535 25,900 -840 Descending Washington Center
10:11PM 37.1636 -78.5133 189° South 470 541 25,000 -1,020 Descending Washington Center
10:12PM 37.0336 -78.5397 189° South 470 541 23,900 -1,140 Descending Washington Center
10:13PM 36.9097 -78.5689 191° South 470 541 22,800 -1,140 Descending Washington Center
10:14PM 36.7756 -78.5947 189° South 464 534 21,700 -1,080 Descending Washington Center
10:15PM 36.6561 -78.6236 191° South 453 521 20,700 -900 Descending Washington Center
10:16PM 36.5344 -78.6500 190° South 447 514 20,000 -480 Descending Washington Center
10:17PM 36.4189 -78.6739 189° South 442 509 19,800 -900 Descending Washington Center
10:18PM 36.3014 -78.6978 189° South 431 496 18,300 -1,440 Descending Washington Center
10:19PM 36.1989 -78.7167 188° South 414 476 17,000 -1,500 Descending Washington Center
10:20PM 36.0769 -78.7453 191° South 420 483 15,300 -1,620 Descending Washington Center
10:21PM 35.9681 -78.7667 189° South 409 471 13,800 -1,500 Descending Washington Center
10:22PM 35.8669 -78.7933 192° South 396 456 12,300 -1,560 Descending Washington Center
10:23PM 35.7861 -78.8592 213° Southwest 360 414 10,800 -1,620 Descending Washington Center
10:24PM 35.7111 -78.9303 218° Southwest 354 407 9,200 -1,560 Descending Washington Center
10:25PM 35.6425 -78.9939 217° Southwest 336 387 7,700 -1,320 Descending Washington Center
10:26PM 35.5781 -79.0550 218° Southwest 311 358 6,600 -1,080 Descending Washington Center
10:27PM 35.5181 -79.1111 217° Southwest 302 348 5,600 -1,080 Descending Washington Center
10:28PM 35.4472 -79.1769 217° Southwest 302 348 4,500 -1,140 Descending Washington Center